• In Kazakhstan
  • List of Countries
  • For 7 days
  • Water Temperature
  • Satellite Maps
  • Weather Map
  • News
  • Weather Widgets
  • user-avatar
    Login

    Hourly Weather Santiago del Estero

    Today, 16 November, Friday

    Time Temperature Precipitation Wind Pressure Humidity
    00:00 +26°C° 0 mm 4 mps 739 mmHg 51%
    01:00 +26°C° 0 mm 3 mps 739 mmHg 52%
    02:00 +25°C° 0 mm 3 mps 739 mmHg 53%
    03:00 +25°C° 0 mm 3 mps 740 mmHg 53%
    04:00 +24°C° 0 mm 3 mps 740 mmHg 53%
    05:00 +24°C° 0 mm 3 mps 740 mmHg 54%
    06:00 +26°C° 0 mm 3 mps 741 mmHg 51%
    07:00 +27°C° 0 mm 3 mps 741 mmHg 48%
    08:00 +28°C° 0 mm 3 mps 742 mmHg 47%
    09:00 +29°C° 0 mm 3 mps 742 mmHg 46%
    10:00 +29°C° 0 mm 4 mps 742 mmHg 46%
    11:00 +30°C° 0 mm 4 mps 742 mmHg 46%
    12:00 +32°C° 0 mm 5 mps 741 mmHg 44%
    13:00 +33°C° 0 mm 5 mps 740 mmHg 41%
    14:00 +34°C° 0 mm 5 mps 739 mmHg 39%
    15:00 +35°C° 0 mm 5 mps 739 mmHg 38%
    16:00 +35°C° 0 mm 5 mps 738 mmHg 37%
    17:00 +35°C° 0 mm 5 mps 737 mmHg 36%
    18:00 +34°C° 0 mm 5 mps 737 mmHg 40%
    19:00 +32°C° 0 mm 4 mps 737 mmHg 44%
    20:00 +30°C° 0 mm 3 mps 737 mmHg 47%
    21:00 +29°C° 0 mm 3 mps 737 mmHg 48%
    22:00 +29°C° 0 mm 4 mps 737 mmHg 49%
    23:00 +28°C° 0 mm 4 mps 737 mmHg 49%

    Tomorrow, 17 November, Saturday

    Time Temperature Precipitation Wind Pressure Humidity
    00:00 +28°C° 0 mm 4 mps 737 mmHg 52%
    01:00 +28°C° 0 mm 3 mps 736 mmHg 55%
    02:00 +27°C° 0 mm 3 mps 736 mmHg 57%
    03:00 +27°C° 0 mm 3 mps 736 mmHg 59%
    04:00 +27°C° 0 mm 3 mps 736 mmHg 60%
    05:00 +26°C° 0 mm 3 mps 735 mmHg 62%
    06:00 +28°C° 0 mm 4 mps 736 mmHg 60%
    07:00 +30°C° 0 mm 4 mps 736 mmHg 58%
    08:00 +32°C° 0 mm 5 mps 736 mmHg 56%
    09:00 +34°C° 0 mm 5 mps 736 mmHg 52%
    10:00 +36°C° 0 mm 5 mps 736 mmHg 48%
    11:00 +39°C° 0 mm 5 mps 736 mmHg 43%
    12:00 +40°C° 0 mm 4 mps 736 mmHg 40%
    13:00 +40°C° 0 mm 3 mps 735 mmHg 37%
    14:00 +41°C° 0 mm 2 mps 735 mmHg 34%
    15:00 +41°C° 0 mm 2 mps 735 mmHg 33%
    16:00 +42°C° 0 mm 3 mps 735 mmHg 32%
    17:00 +40°C° 0 mm 3 mps 734 mmHg 32%
    18:00 +38°C° 0.1 mm 4 mps 735 mmHg 38%
    19:00 +36°C° 0.1 mm 5 mps 736 mmHg 45%
    20:00 +34°C° 0.1 mm 6 mps 737 mmHg 52%
    21:00 +32°C° 1.2 mm 7 mps 739 mmHg 58%
    22:00 +28°C° 1.2 mm 8 mps 740 mmHg 64%
    23:00 +26°C° 1.2 mm 8 mps 741 mmHg 70%

    Day after tomorrow, 18 November, Sunday

    Time Temperature Precipitation Wind Pressure Humidity
    00:00 +24°C° 1.4 mm 8 mps 742 mmHg 71%
    01:00 +23°C° 1.4 mm 8 mps 742 mmHg 71%
    02:00 +22°C° 1.4 mm 7 mps 743 mmHg 71%
    03:00 +21°C° 0.1 mm 6 mps 744 mmHg 65%
    04:00 +21°C° 0.1 mm 5 mps 744 mmHg 60%
    05:00 +21°C° 0.1 mm 3 mps 745 mmHg 54%
    06:00 +21°C° 0 mm 3 mps 746 mmHg 51%
    07:00 +21°C° 0 mm 3 mps 747 mmHg 48%
    08:00 +21°C° 0 mm 2 mps 748 mmHg 45%
    09:00 +23°C° 0 mm 2 mps 748 mmHg 42%
    10:00 +24°C° 0 mm 2 mps 748 mmHg 39%
    11:00 +25°C° 0 mm 2 mps 748 mmHg 36%
    12:00 +26°C° 0 mm 2 mps 747 mmHg 33%
    13:00 +28°C° 0 mm 2 mps 746 mmHg 29%
    14:00 +30°C° 0 mm 2 mps 746 mmHg 25%
    15:00 +30°C° 0 mm 2 mps 745 mmHg 25%
    16:00 +30°C° 0 mm 2 mps 744 mmHg 26%
    17:00 +30°C° 0 mm 3 mps 744 mmHg 26%
    18:00 +28°C° 0 mm 3 mps 744 mmHg 30%
    19:00 +26°C° 0 mm 2 mps 744 mmHg 34%
    20:00 +25°C° 0 mm 2 mps 745 mmHg 38%
    21:00 +24°C° 0 mm 2 mps 745 mmHg 41%
    22:00 +23°C° 0 mm 2 mps 745 mmHg 45%
    23:00 +22°C° 0 mm 1 mps 745 mmHg 48%

    19 November, Monday

    Time Temperature Precipitation Wind Pressure Humidity
    00:00 +21°C° 0 mm 2 mps 744 mmHg 48%
    01:00 +20°C° 0 mm 2 mps 743 mmHg 48%
    02:00 +20°C° 0 mm 2 mps 743 mmHg 49%
    03:00 +20°C° 0 mm 3 mps 742 mmHg 50%
    04:00 +19°C° 0 mm 3 mps 742 mmHg 52%
    05:00 +19°C° 0 mm 3 mps 742 mmHg 54%
    06:00 +20°C° 0 mm 4 mps 743 mmHg 54%
    07:00 +22°C° 0 mm 5 mps 743 mmHg 54%
    08:00 +23°C° 0 mm 6 mps 743 mmHg 54%
    09:00 +26°C° 0 mm 6 mps 743 mmHg 50%
    10:00 +28°C° 0 mm 6 mps 743 mmHg 47%
    11:00 +30°C° 0 mm 6 mps 743 mmHg 44%
    12:00 +33°C° 0 mm 6 mps 742 mmHg 42%
    13:00 +34°C° 0 mm 6 mps 741 mmHg 40%
    14:00 +35°C° 0 mm 6 mps 740 mmHg 37%
    15:00 +35°C° 0 mm 6 mps 740 mmHg 37%
    16:00 +35°C° 0 mm 5 mps 739 mmHg 37%
    17:00 +34°C° 0 mm 5 mps 739 mmHg 37%
    18:00 +33°C° 0 mm 5 mps 739 mmHg 39%
    19:00 +30°C° 0 mm 4 mps 740 mmHg 42%
    20:00 +28°C° 0 mm 4 mps 740 mmHg 45%
    21:00 +27°C° 0 mm 4 mps 741 mmHg 44%
    22:00 +26°C° 0 mm 4 mps 741 mmHg 43%
    23:00 +25°C° 0 mm 5 mps 741 mmHg 43%

    20 November, Tuesday

    Time Temperature Precipitation Wind Pressure Humidity
    00:00 +25°C° 0 mm 4 mps 741 mmHg 44%
    01:00 +23°C° 0 mm 4 mps 741 mmHg 45%
    02:00 +22°C° 0 mm 4 mps 741 mmHg 45%
    03:00 +22°C° 0 mm 3 mps 741 mmHg 47%
    04:00 +21°C° 0 mm 3 mps 741 mmHg 49%
    05:00 +21°C° 0 mm 3 mps 741 mmHg 51%
    06:00 +22°C° 0 mm 3 mps 742 mmHg 49%
    07:00 +25°C° 0 mm 4 mps 742 mmHg 47%
    08:00 +26°C° 0 mm 4 mps 743 mmHg 45%
    09:00 +28°C° 0 mm 4 mps 743 mmHg 41%
    10:00 +32°C° 0 mm 5 mps 742 mmHg 36%
    11:00 +34°C° 0 mm 5 mps 742 mmHg 31%
    12:00 +35°C° 0 mm 5 mps 741 mmHg 29%
    13:00 +36°C° 0 mm 5 mps 741 mmHg 28%
    14:00 +37°C° 0 mm 5 mps 740 mmHg 26%
    15:00 +37°C° 0 mm 5 mps 739 mmHg 26%
    16:00 +37°C° 0 mm 5 mps 739 mmHg 26%
    17:00 +37°C° 0 mm 5 mps 739 mmHg 26%
    18:00 +35°C° 0 mm 4 mps 739 mmHg 29%
    19:00 +33°C° 0 mm 4 mps 739 mmHg 31%
    20:00 +30°C° 0 mm 4 mps 740 mmHg 34%
    21:00 +29°C° 0 mm 4 mps 740 mmHg 35%
    22:00 +28°C° 0 mm 4 mps 740 mmHg 37%
    23:00 +27°C° 0 mm 4 mps 740 mmHg 38%

    21 November, Wednesday

    Time Temperature Precipitation Wind Pressure Humidity
    00:00 +26°C° 0 mm 4 mps 740 mmHg 40%
    01:00 +26°C° 0 mm 4 mps 740 mmHg 43%
    02:00 +25°C° 0 mm 3 mps 739 mmHg 45%
    03:00 +25°C° 0 mm 3 mps 739 mmHg 47%
    04:00 +24°C° 0 mm 3 mps 739 mmHg 48%
    05:00 +24°C° 0 mm 3 mps 739 mmHg 50%
    06:00 +26°C° 0 mm 4 mps 739 mmHg 49%
    07:00 +28°C° 0 mm 4 mps 739 mmHg 48%
    08:00 +29°C° 0 mm 5 mps 740 mmHg 47%
    09:00 +33°C° 0 mm 6 mps 739 mmHg 43%
    10:00 +35°C° 0 mm 6 mps 739 mmHg 39%
    11:00 +38°C° 0 mm 7 mps 738 mmHg 36%
    12:00 +39°C° 0 mm 6 mps 737 mmHg 34%
    13:00 +40°C° 0 mm 6 mps 736 mmHg 32%
    14:00 +41°C° 0 mm 6 mps 735 mmHg 30%
    15:00 +41°C° 0 mm 6 mps 735 mmHg 32%
    16:00 +40°C° 0 mm 6 mps 734 mmHg 34%
    17:00 +40°C° 0 mm 6 mps 734 mmHg 36%
    18:00 +38°C° 0 mm 6 mps 734 mmHg 39%
    19:00 +36°C° 0 mm 5 mps 735 mmHg 42%
    20:00 +35°C° 0 mm 5 mps 735 mmHg 46%
    21:00 +34°C° 0 mm 5 mps 735 mmHg 47%
    22:00 +34°C° 0 mm 5 mps 736 mmHg 49%
    23:00 +33°C° 0 mm 5 mps 736 mmHg 50%
    Show more